Time,HIH7120,SHT85,AHT10,AHT10,AHT10,AHT10,AHT10,AHT10,AHT10,AHT10,AHT20,AHT20,AHT20,AHT20,AHT20,AHT20,AHT20,AHT20,AHT21,AHT21,AHT21,AHT21,AHT21,AHT21,AHT21,AHT21,AHT25,AHT25,AHT25,AHT25,AHT25,AHT25,AHT25,AHT25
00:29:44,24.00,25.39,23.56,23.73,22.93,23.66,23.55,27.57,22.79,23.59,24.95,24.54,25.32,25.11,24.04,25.47,25.65,25.07,22.32,20.23,20.24,19.64,20.80,22.93,19.09,20.62,29.53,28.50,29.47,30.57,29.32,28.88,28.38,30.31,
00:29:58,24.00,25.38,23.53,23.72,22.95,23.65,23.55,27.57,22.78,23.58,24.94,24.54,25.39,25.08,24.01,25.46,25.65,25.08,22.30,20.18,20.24,19.62,20.84,22.99,19.14,20.60,29.59,28.52,29.45,30.46,29.34,28.87,28.18,30.34,
00:30:12,24.00,25.38,23.54,23.71,22.94,23.65,23.54,27.54,22.77,23.57,24.93,24.55,25.31,25.13,24.02,25.52,25.66,25.07,22.34,20.21,20.27,19.67,20.80,22.99,19.13,20.49,29.61,28.56,29.42,30.48,29.29,28.85,27.91,30.28,
00:30:26,24.00,25.34,23.54,23.70,22.94,23.65,23.54,27.54,22.75,23.56,24.91,24.51,25.34,25.11,24.03,25.47,25.64,25.07,22.36,20.19,20.24,19.66,20.78,22.90,19.17,20.47,29.55,28.51,29.39,30.49,29.29,28.85,27.80,30.24,
00:30:39,24.00,25.31,23.56,23.70,22.94,23.63,23.53,27.54,22.74,23.56,24.88,24.54,25.35,25.08,23.98,25.44,25.62,25.07,22.31,20.18,20.23,19.62,20.78,22.94,19.13,20.59,29.56,28.53,29.42,30.49,29.30,28.90,27.67,30.25,
00:30:53,24.00,25.33,23.54,23.73,22.93,23.62,23.54,27.54,22.76,23.55,24.91,24.49,25.32,25.08,24.00,25.48,25.64,25.07,22.30,20.16,20.22,19.63,20.81,22.97,19.10,20.50,29.56,28.47,29.38,30.48,29.30,28.75,27.65,30.23,
00:31:07,23.98,25.33,23.54,23.72,22.91,23.62,23.53,27.52,22.75,23.53,24.90,24.49,25.33,25.08,24.01,25.44,25.60,25.08,22.27,20.16,20.29,19.63,20.78,22.98,19.08,20.59,29.60,28.47,29.38,30.49,29.23,28.82,27.63,30.25,
00:31:21,23.98,25.28,23.54,23.73,22.91,23.61,23.52,27.50,22.75,23.53,24.90,24.50,25.31,25.06,24.00,25.45,25.61,25.03,22.32,20.12,20.26,19.60,20.80,22.93,19.10,20.48,29.57,28.50,29.40,30.43,29.24,28.76,27.55,30.16,
00:31:34,23.95,25.31,23.57,23.79,22.93,23.63,23.60,27.54,22.92,23.68,24.93,24.51,25.34,25.10,23.99,25.48,25.62,25.08,22.28,20.18,20.32,22.01,27.93,32.18,28.82,29.78,32.54,31.84,33.43,35.59,33.56,34.78,33.95,37.03,
00:31:48,37.33,42.79,33.78,35.84,36.64,41.55,39.15,43.18,36.46,39.57,41.44,41.88,42.37,41.83,43.16,43.89,44.72,44.48,49.76,47.10,45.72,47.61,48.31,50.27,46.90,48.25,48.08,46.48,48.39,51.32,47.29,49.32,46.98,50.84,
00:32:02,51.40,53.28,48.26,48.84,48.58,50.12,49.19,51.62,47.59,49.42,49.85,49.81,50.27,50.01,49.79,50.79,50.86,50.59,50.63,48.16,46.25,48.16,48.79,50.65,47.42,48.52,53.35,51.49,52.88,55.66,52.36,53.53,51.02,54.83,
00:32:16,52.37,53.75,50.48,50.47,50.24,50.97,50.42,52.54,49.20,50.57,51.17,51.09,51.37,51.39,50.73,52.03,51.67,51.57,50.39,48.04,46.20,48.10,48.73,50.63,47.28,48.47,55.20,53.24,54.30,56.91,54.23,54.67,52.28,56.17,
00:32:30,52.35,53.91,50.97,50.85,50.65,51.51,50.92,52.95,49.60,50.89,51.38,51.31,51.34,51.51,50.83,52.22,51.78,51.72,49.81,47.56,45.07,47.09,47.66,49.76,45.95,47.47,55.81,53.61,54.47,56.91,54.62,54.66,52.20,56.34,
00:32:43,51.52,53.37,50.76,50.69,50.13,51.03,50.40,52.51,49.16,50.40,50.79,50.69,50.87,51.25,50.23,51.96,51.12,51.27,49.36,46.97,45.13,46.86,47.69,49.46,45.57,47.28,56.03,53.68,54.37,56.89,54.64,54.58,51.86,56.43,
00:32:57,51.23,53.29,50.52,50.57,50.05,51.52,50.53,52.86,49.19,50.63,50.85,51.05,50.67,50.89,50.20,51.76,51.00,51.07,49.32,46.86,45.13,47.06,47.72,49.75,45.88,47.50,56.36,53.94,54.63,57.19,55.04,54.77,51.92,56.75,
00:33:11,51.45,53.55,50.54,50.63,50.17,51.63,50.55,52.96,49.21,50.74,50.82,51.07,50.67,50.91,50.23,51.78,51.01,51.07,49.20,47.08,45.25,47.42,47.91,50.18,46.01,47.93,56.71,53.98,54.66,57.35,55.15,54.85,51.78,56.82,
00:33:25,51.35,53.58,50.52,50.89,50.49,52.14,51.11,53.45,49.94,51.44,51.29,51.59,51.22,51.57,50.79,52.46,51.63,51.82,50.64,48.73,46.32,48.49,49.05,51.10,47.78,49.31,57.36,54.65,55.56,58.54,56.10,55.69,52.66,57.60,
00:33:39,52.74,54.45,52.19,52.47,51.93,53.57,52.28,54.45,51.15,52.59,52.36,52.40,52.45,52.66,51.82,53.33,52.76,52.85,51.38,49.34,47.06,49.20,49.60,51.58,48.18,49.76,58.09,55.26,56.32,59.39,57.01,56.35,53.51,58.24,
00:33:52,53.18,54.80,52.78,52.94,52.47,54.00,52.69,54.77,51.58,52.97,52.69,52.67,52.76,52.92,52.07,53.58,53.04,53.07,51.36,49.42,47.10,49.21,49.53,51.50,48.22,49.65,58.45,55.48,56.57,59.73,57.46,56.63,53.87,58.49,
00:34:06,53.25,54.74,53.01,53.19,52.65,54.22,52.81,54.89,51.72,53.08,52.72,52.67,52.82,53.01,52.01,53.50,52.99,53.05,50.73,48.73,46.49,48.45,48.98,50.91,47.41,49.00,58.44,55.43,56.42,59.55,57.37,56.37,53.70,58.44,
00:34:20,52.59,54.38,52.53,52.66,52.06,53.50,52.25,54.39,51.09,52.51,52.25,52.20,52.32,52.51,51.62,53.31,52.67,52.78,50.81,48.77,46.53,48.39,48.99,50.88,47.43,48.88,58.43,55.39,56.35,59.57,57.41,56.38,53.48,58.40,
00:34:34,52.67,54.47,52.38,52.80,52.04,53.58,52.41,54.54,51.32,52.77,52.26,52.23,52.22,52.51,51.57,53.20,52.49,52.62,50.55,48.49,46.36,48.61,48.94,51.16,47.36,49.11,58.45,55.40,56.36,59.62,57.51,56.48,53.32,58.50,
00:34:48,52.52,54.50,52.17,52.56,52.05,53.69,52.33,54.52,51.15,52.62,52.23,52.29,51.99,52.29,51.36,53.00,52.33,52.44,50.72,48.61,46.35,48.13,48.60,50.64,47.15,48.71,58.43,55.35,56.38,59.99,57.66,56.54,53.17,58.58,
00:35:01,52.67,54.45,52.32,52.94,52.04,53.59,52.45,54.62,51.34,52.81,52.31,52.29,52.39,52.65,51.74,53.36,52.62,52.76,50.91,48.95,46.56,48.78,49.03,51.27,47.53,49.25,58.73,55.50,56.52,60.21,57.72,56.59,53.07,58.64,
00:35:15,52.86,54.79,52.55,53.17,52.41,53.99,52.78,54.86,51.64,53.03,52.50,52.44,52.45,52.70,51.78,53.43,52.66,52.77,50.69,48.75,46.41,48.36,48.88,50.81,47.34,48.97,58.63,55.49,56.46,60.25,57.72,56.61,52.91,58.59,
00:35:29,52.59,54.58,52.43,52.93,52.28,53.83,52.68,54.79,51.56,53.04,52.32,52.32,52.28,52.53,51.62,53.27,52.50,52.64,50.53,48.48,46.45,48.60,49.05,51.23,47.44,49.28,58.84,55.46,56.39,60.15,57.73,56.47,52.80,58.46,
00:35:43,52.50,54.55,52.30,52.87,52.13,53.81,52.47,54.72,51.41,52.89,52.22,52.38,52.06,52.39,51.39,53.09,52.33,52.44,50.35,48.42,46.28,48.36,48.64,50.77,47.18,48.83,58.81,55.31,56.23,60.06,57.62,56.29,52.62,58.30,
00:35:57,52.47,54.52,52.32,53.04,52.17,53.74,52.54,54.75,51.49,53.02,52.27,52.28,52.19,52.56,51.50,53.25,52.45,52.66,50.68,48.71,46.48,48.54,48.93,51.12,47.38,49.03,58.91,55.49,56.48,60.40,57.86,56.58,52.79,58.61,
00:36:10,52.62,54.39,52.32,53.01,52.25,53.87,52.68,54.86,51.59,53.10,52.32,52.33,52.15,52.51,51.44,53.18,52.38,52.54,50.54,48.51,46.40,48.42,48.96,51.04,47.46,49.16,58.86,55.51,56.46,60.33,57.82,56.55,52.67,58.54,
00:36:24,52.52,54.61,52.45,53.19,52.29,53.85,52.66,54.81,51.56,53.02,52.37,52.33,52.37,52.73,51.71,53.47,52.56,52.88,50.79,49.15,46.38,48.29,49.04,50.99,47.50,49.05,58.92,55.64,56.79,60.99,58.18,56.99,52.87,59.01,
00:36:38,53.06,54.81,52.55,53.39,52.38,53.97,52.84,54.99,51.73,53.25,52.43,52.46,52.62,53.05,51.95,53.78,52.83,53.12,51.04,49.32,46.54,48.55,49.27,51.23,47.83,49.21,59.26,55.87,57.09,61.46,58.48,57.23,53.16,59.40,
00:36:52,53.18,55.04,52.86,53.68,52.51,54.06,52.88,55.04,51.78,53.31,52.57,52.53,52.71,53.22,52.09,53.96,52.95,53.31,51.25,49.43,46.71,48.65,49.25,51.25,47.59,49.29,59.40,55.91,57.19,61.62,58.63,57.34,53.22,59.52,
00:37:06,53.28,55.11,52.97,53.74,52.68,54.28,53.06,55.19,51.91,53.46,52.75,52.72,52.79,53.27,52.14,53.99,53.05,53.34,51.13,49.49,46.60,48.64,49.19,51.36,47.65,49.41,59.36,55.99,57.21,61.65,58.73,57.40,53.23,59.52,
00:37:19,53.33,54.87,52.92,53.80,52.56,54.21,53.00,55.19,51.94,53.49,52.61,52.65,52.84,53.27,52.17,54.03,53.08,53.42,51.10,49.43,46.58,48.51,49.04,51.16,47.56,49.17,59.29,55.85,57.22,61.65,58.66,57.30,53.17,59.50,
00:37:33,53.25,54.94,52.90,53.67,52.57,54.16,53.00,55.16,51.92,53.49,52.64,52.62,52.75,53.26,52.10,53.96,52.99,53.33,51.03,49.28,46.60,48.51,49.13,51.19,47.74,49.25,59.31,55.81,57.18,61.65,58.69,57.35,53.10,59.51,
00:37:47,53.16,54.98,52.92,53.82,52.71,54.32,53.15,55.29,52.08,53.65,52.69,52.73,52.84,53.43,52.21,54.13,53.12,53.52,51.37,49.57,46.94,48.89,49.32,51.45,47.80,49.46,59.60,56.03,57.40,62.03,58.94,57.60,53.33,59.84,
00:38:01,53.40,55.06,52.97,53.98,52.75,54.42,53.22,55.42,52.18,53.77,52.72,52.78,52.95,53.62,52.34,54.35,53.24,53.67,51.66,49.93,46.98,48.98,49.64,51.68,48.11,49.53,59.81,56.23,57.63,62.26,59.22,57.77,53.51,60.02,
00:38:14,53.47,55.23,53.09,54.04,52.85,54.53,53.36,55.53,52.32,53.90,52.91,52.90,52.88,53.52,52.20,54.22,53.14,53.59,51.26,49.71,46.72,48.85,49.19,51.39,47.87,49.51,59.69,56.17,57.53,62.21,59.19,57.77,53.49,60.04,
00:38:28,53.62,55.20,53.16,54.23,52.92,54.59,53.41,55.57,52.35,53.95,52.93,52.97,53.23,53.90,52.63,54.60,53.56,54.00,51.97,50.19,47.29,49.21,49.72,51.83,48.30,49.78,60.07,56.53,57.95,62.79,59.66,58.15,53.74,60.43,
00:38:42,53.89,55.49,53.48,54.39,53.12,54.72,53.52,55.64,52.40,53.98,53.13,53.12,53.32,53.88,52.60,54.58,53.54,53.97,51.64,50.08,47.07,49.08,49.57,51.68,48.19,49.69,60.13,56.56,57.99,62.96,59.83,58.14,53.79,60.47,
00:38:56,54.01,55.69,53.65,54.73,53.15,54.81,53.60,55.74,52.54,54.14,53.22,53.21,53.54,54.11,52.79,54.78,53.71,54.12,51.75,50.03,47.40,49.39,49.90,51.98,48.48,49.88,60.30,56.69,58.00,62.75,59.82,58.16,53.84,60.39,
00:39:10,53.91,55.42,53.59,54.56,53.13,54.81,53.52,55.69,52.44,54.05,53.13,53.19,53.41,53.99,52.69,54.73,53.63,54.07,51.70,50.07,47.05,49.08,49.68,51.52,48.27,49.67,60.07,56.58,58.07,62.71,59.78,58.12,53.71,60.35,
00:39:23,53.74,55.25,53.43,54.31,53.00,54.67,53.42,55.55,52.36,53.92,52.99,53.16,53.22,53.72,52.48,54.44,53.47,53.85,51.49,49.98,46.94,49.12,49.45,51.65,48.07,49.69,60.16,56.42,57.97,62.68,59.77,58.11,53.68,60.42,
00:39:37,53.79,55.28,53.44,54.42,52.98,54.63,53.35,55.52,52.26,53.88,53.06,53.08,53.31,53.97,52.70,54.73,53.71,54.20,51.70,50.09,47.08,49.18,49.55,51.65,48.27,49.66,60.44,56.56,57.93,62.66,59.74,58.09,53.71,60.35,
00:39:51,53.89,55.52,53.51,54.49,52.99,54.57,53.31,55.43,52.18,53.75,53.04,53.01,53.38,53.99,52.69,54.72,53.67,54.11,51.70,50.09,47.08,49.05,49.69,51.66,48.24,49.59,60.32,56.48,57.97,62.68,59.86,58.12,53.70,60.36,
00:40:05,53.84,55.48,53.47,54.48,52.94,54.58,53.35,55.53,52.29,53.89,52.99,52.95,53.36,53.97,52.62,54.66,53.60,54.03,51.53,49.94,46.95,49.00,49.52,51.63,48.18,49.68,60.28,56.56,57.93,62.65,59.91,58.12,53.80,60.40,
00:40:19,53.69,55.36,53.46,54.48,52.90,54.51,53.32,55.54,52.27,53.89,52.96,52.93,53.34,53.88,52.65,54.61,53.48,54.02,51.56,50.01,47.00,48.96,49.55,51.61,48.23,49.64,60.24,56.50,57.96,62.73,59.97,58.15,53.65,60.42,
00:40:32,53.82,55.45,53.56,54.64,52.96,54.57,53.33,55.48,52.25,53.88,53.12,53.09,53.51,54.13,52.74,54.74,53.64,54.07,51.60,50.04,47.07,49.17,49.62,51.70,48.32,49.72,60.35,56.63,58.13,63.07,60.08,58.25,53.74,60.54,
00:40:46,54.16,55.85,53.81,55.03,53.22,54.97,53.73,55.95,52.63,54.33,53.32,53.26,53.83,54.46,53.14,55.14,53.99,54.44,51.97,50.23,47.48,49.53,49.99,52.22,48.66,50.21,60.71,56.85,58.40,63.23,60.33,58.50,53.92,60.82,
00:41:00,54.23,56.09,53.99,55.22,53.37,55.02,53.77,55.92,52.65,54.30,53.49,53.47,54.00,54.55,53.21,55.23,54.01,54.48,51.95,50.44,47.41,49.54,49.91,52.04,48.64,50.10,60.72,56.90,58.30,63.14,60.43,58.44,53.94,60.77,
00:41:14,54.03,55.71,53.83,54.80,53.27,54.89,53.59,55.75,52.50,54.12,53.28,53.27,53.56,54.19,52.81,54.86,53.76,54.22,51.67,50.11,47.10,49.11,49.62,51.72,48.28,49.77,60.52,56.78,58.21,63.05,60.36,58.41,53.85,60.66,
00:41:28,53.86,55.45,53.64,54.66,53.08,54.67,53.43,55.61,52.35,53.98,53.12,53.13,53.44,54.09,52.71,54.75,53.68,54.14,51.59,49.99,47.00,49.06,49.59,51.67,48.22,49.69,60.35,56.66,58.19,62.91,60.23,58.31,53.72,60.56,
00:41:41,53.84,55.41,53.56,54.66,52.99,54.64,53.39,55.61,52.36,54.00,53.05,53.04,53.47,54.08,52.70,54.74,53.66,54.11,51.54,50.08,47.02,49.20,49.56,51.71,48.22,49.81,60.34,56.64,58.13,62.92,60.21,58.38,53.75,60.59,
00:41:55,53.82,55.51,53.60,54.69,53.01,54.62,53.42,55.61,52.35,54.01,53.08,53.00,53.47,54.13,52.74,54.77,53.66,54.12,51.57,50.07,46.99,49.07,49.66,51.60,48.24,49.73,60.38,56.68,58.20,63.06,60.31,58.39,53.78,60.64,
00:42:09,53.91,55.57,53.68,54.75,53.02,54.63,53.43,55.63,52.39,54.03,53.11,53.06,53.49,54.16,52.75,54.87,53.71,54.25,51.64,50.14,47.16,49.15,49.67,51.74,48.30,49.70,60.41,56.75,58.30,63.19,60.48,58.45,53.84,60.75,
00:42:23,53.96,55.52,53.73,54.80,53.11,54.75,53.51,55.70,52.47,54.10,53.15,53.17,53.49,54.13,52.72,54.80,53.69,54.17,51.56,49.94,47.14,49.33,49.64,51.97,48.33,50.14,60.68,56.80,58.28,63.06,60.51,58.48,53.91,60.73,
00:42:37,53.89,55.65,53.64,54.58,53.32,55.18,53.73,55.98,52.55,54.28,53.52,53.59,53.62,54.11,52.85,54.78,53.81,54.23,51.81,50.07,47.43,49.72,49.96,52.31,48.66,50.41,60.83,57.01,58.51,63.28,60.84,58.70,54.27,61.19,
00:42:50,54.21,55.85,54.12,55.02,53.73,55.53,54.12,56.38,53.08,54.96,53.74,53.95,53.99,54.45,53.16,55.13,54.17,54.53,52.04,50.52,48.03,50.49,50.74,53.16,49.69,51.07,61.88,57.80,59.35,65.01,62.35,59.95,55.82,62.80,
00:43:04,55.33,57.11,54.88,55.84,54.53,56.48,54.91,57.03,53.59,55.27,54.63,54.79,54.80,55.23,54.24,56.21,55.18,55.70,53.51,51.66,49.46,51.34,52.20,54.07,49.70,50.85,65.18,60.75,61.37,68.27,64.91,62.63,59.35,66.19,
00:43:18,57.16,60.78,55.62,56.28,54.89,56.70,55.54,57.41,53.47,55.22,55.54,55.65,54.94,55.63,55.12,57.52,56.29,57.49,55.25,53.95,51.11,53.22,53.95,55.21,50.79,51.94,68.44,64.12,63.87,72.41,68.36,66.04,62.87,70.17,
00:43:32,58.72,63.94,56.58,57.37,55.68,57.50,56.57,58.17,53.98,55.74,56.61,56.61,55.45,56.32,56.03,58.92,57.12,59.04,55.91,55.43,52.06,54.10,55.66,56.67,52.27,52.42,72.14,68.05,66.54,77.74,71.17,70.02,64.73,73.82,
00:43:46,61.56,68.44,58.07,58.99,57.49,59.22,59.01,59.64,54.90,56.44,58.48,58.54,56.03,57.56,57.39,61.40,58.91,62.00,57.58,57.96,53.80,55.96,57.84,58.17,53.38,53.36,76.22,71.90,68.88,82.05,73.92,74.34,67.79,77.75,
00:43:59,63.04,70.75,59.19,60.29,58.52,59.76,59.89,60.12,55.34,56.84,59.47,59.25,56.24,58.42,57.76,62.40,59.51,63.22,56.94,59.16,53.81,55.90,57.88,58.07,53.89,53.73,77.26,72.41,70.03,84.23,75.52,77.43,70.09,81.24,
00:44:13,62.83,70.81,59.78,60.84,59.28,60.46,60.64,60.85,55.70,57.42,60.60,60.24,56.70,59.51,58.59,64.07,60.36,65.12,57.65,61.26,54.51,56.68,59.01,59.37,54.89,54.49,78.89,73.64,72.13,87.42,78.29,81.37,74.60,86.18,
00:44:27,64.17,72.56,60.73,61.98,60.77,61.98,62.28,62.30,56.75,58.68,62.53,62.23,57.81,60.69,59.83,65.93,61.69,67.04,59.72,64.01,57.35,59.66,61.46,62.31,57.11,56.36,82.91,76.37,74.93,91.25,81.86,84.75,80.58,89.50,
00:44:41,66.07,74.69,62.12,63.57,62.50,63.26,63.94,63.60,57.98,59.96,64.30,63.85,58.87,62.04,60.94,67.37,62.73,68.59,60.38,66.06,57.32,59.93,61.90,61.88,57.38,56.68,84.33,77.06,75.98,93.29,83.04,86.81,81.67,91.10,
00:44:54,67.24,75.62,62.45,64.34,62.75,63.36,64.15,63.86,58.20,60.29,64.45,64.29,59.43,63.20,61.55,68.67,63.30,69.79,61.75,66.40,58.41,63.43,61.90,63.66,57.93,58.03,86.01,79.19,77.28,95.53,84.40,88.31,82.36,92.56,
00:45:08,69.59,76.82,63.91,65.99,63.27,65.71,64.91,65.34,59.35,62.05,65.75,66.37,61.54,65.40,63.93,71.49,65.53,72.31,64.71,68.88,60.55,69.34,63.55,67.21,60.83,61.32,88.84,81.28,79.55,97.96,85.46,90.20,81.95,93.88,
00:45:22,71.47,77.63,66.32,68.29,64.86,67.85,66.21,66.98,61.11,64.02,67.12,68.36,63.32,67.19,65.56,73.26,66.94,73.69,66.08,69.36,60.97,70.65,63.29,68.25,61.43,62.38,90.10,81.96,80.78,98.62,85.88,90.79,81.07,94.00,
00:45:36,72.23,76.68,67.24,69.07,65.28,68.75,66.47,67.63,61.91,65.06,67.65,69.72,64.42,68.10,66.60,74.49,68.06,74.46,67.39,69.69,62.14,73.36,64.33,70.62,63.03,64.56,92.32,82.90,82.39,100.00,87.13,92.31,81.64,95.06,
00:45:50,73.72,77.04,68.81,70.46,66.62,70.72,67.77,69.17,63.30,66.72,69.02,71.75,66.11,69.49,68.11,75.87,69.51,75.54,69.46,70.84,63.45,74.80,64.75,71.87,64.07,65.91,93.74,84.02,83.91,100.00,88.40,93.30,82.31,95.80,
00:46:03,74.50,77.08,69.71,71.04,67.23,71.74,68.21,69.94,63.99,67.74,69.40,72.83,66.73,70.00,68.61,76.07,70.00,75.54,69.04,69.93,63.09,74.88,64.30,71.78,64.09,66.16,93.85,84.35,84.08,100.00,88.51,92.91,82.15,95.65,
00:46:17,74.57,76.76,69.84,70.98,67.25,72.46,68.27,70.38,64.25,68.37,69.76,73.94,67.17,70.41,69.15,76.51,70.71,75.81,70.61,70.73,64.85,77.74,66.02,74.74,65.79,68.42,96.00,85.77,85.37,100.00,89.53,94.02,83.19,96.60,
00:46:31,75.57,77.65,70.98,71.87,68.24,73.91,69.19,71.53,65.14,69.60,70.79,75.55,68.19,71.20,70.08,77.18,71.56,76.29,71.32,71.02,65.49,78.35,66.12,75.06,66.08,68.92,96.80,86.47,85.99,100.00,90.25,94.34,83.59,96.97,
00:46:45,75.77,77.87,71.33,72.07,68.65,74.48,69.44,72.06,65.62,70.21,71.16,76.37,68.53,71.38,70.32,77.15,71.79,76.16,71.41,70.81,65.64,78.13,66.21,75.40,66.50,69.44,96.81,86.71,86.33,100.00,90.60,94.36,83.65,97.05,
00:46:59,75.74,77.83,71.36,71.97,68.81,74.70,69.48,72.27,65.77,70.58,71.18,76.77,68.59,71.20,70.26,76.80,71.81,75.80,71.93,70.75,65.91,78.37,66.32,75.71,66.59,69.69,96.89,86.97,87.04,100.00,91.25,94.65,83.98,97.21,
00:47:12,75.64,77.65,71.23,71.63,68.85,74.91,69.44,72.51,65.85,70.92,71.33,77.27,68.56,70.98,70.33,76.68,71.90,75.54,72.55,71.02,66.63,79.64,66.89,77.04,67.17,70.74,98.01,87.60,87.68,100.00,91.75,94.89,84.33,97.40,
00:47:26,76.13,78.23,71.59,71.79,69.31,75.72,69.99,73.19,66.30,71.60,71.87,78.40,68.89,71.13,70.68,76.79,72.24,75.61,72.42,70.87,66.83,81.02,67.30,78.44,67.97,72.14,98.98,88.09,87.93,100.00,92.09,95.13,84.77,97.73,
00:47:40,76.30,78.81,72.25,72.33,70.04,76.71,70.70,73.90,66.92,72.36,72.78,79.82,69.60,71.82,71.40,77.34,72.75,76.02,72.73,71.03,67.33,81.62,67.54,79.04,68.69,72.84,99.74,88.57,88.16,100.00,92.38,95.21,85.07,97.85,
00:47:54,76.45,78.76,72.62,72.70,70.56,77.40,71.14,74.51,67.41,73.30,73.42,80.91,70.05,72.21,71.89,77.85,73.48,76.46,73.78,71.76,68.82,82.91,69.25,80.62,70.06,74.17,100.00,89.59,89.18,100.00,93.53,96.63,86.61,99.08,
00:48:08,77.94,79.87,73.75,73.70,72.00,79.31,72.83,76.01,68.68,74.78,75.17,83.57,71.40,73.58,73.40,79.61,75.15,78.01,74.96,72.98,69.90,85.19,70.36,82.25,71.60,75.68,100.00,90.27,89.46,100.00,93.81,96.51,86.40,99.14,
00:48:21,77.79,80.84,74.74,74.66,73.20,80.51,74.00,77.11,69.87,76.19,76.62,85.56,72.48,74.77,74.49,80.80,76.30,78.97,75.76,73.79,70.96,86.35,71.15,83.21,72.57,76.70,100.00,90.86,89.88,100.00,94.24,96.66,86.15,99.07,
00:48:35,78.01,81.26,75.34,75.20,74.01,80.88,74.39,77.72,70.53,77.02,76.57,85.26,72.44,74.64,73.90,79.80,75.52,78.10,73.76,72.09,69.65,82.95,69.47,81.45,71.86,75.62,100.00,90.28,89.52,100.00,93.91,95.87,85.71,98.33,
00:48:49,77.60,80.65,75.25,75.29,74.25,80.77,74.57,77.50,70.82,77.08,76.82,85.33,72.71,75.02,74.06,80.08,76.00,78.54,74.44,72.71,70.28,83.55,70.21,80.71,71.88,75.20,100.00,89.53,88.71,100.00,93.17,94.63,84.56,97.08,
00:49:03,76.77,79.71,74.38,74.43,73.81,79.83,73.99,76.87,70.56,76.56,76.44,84.83,72.50,74.74,74.01,80.05,76.05,78.35,75.72,73.43,71.46,86.41,71.88,83.11,73.56,76.90,100.00,90.15,89.54,100.00,94.08,96.09,85.69,98.15,
00:49:17,78.43,81.15,75.80,75.84,75.39,81.65,75.67,78.23,71.80,77.96,77.65,86.31,73.55,75.74,74.97,80.73,76.68,78.92,74.70,72.88,71.16,84.58,71.18,81.90,73.43,76.44,100.00,89.49,88.81,100.00,93.37,94.66,84.30,97.13,
00:49:30,77.38,80.61,75.36,75.55,75.26,80.78,75.14,77.78,71.89,77.81,77.19,85.19,73.37,75.83,74.39,80.25,76.59,79.01,74.20,72.42,71.01,83.45,70.65,80.39,73.19,75.56,96.91,87.63,87.54,99.20,92.31,92.95,82.89,95.35,
00:49:44,75.33,77.02,74.22,74.31,74.61,79.82,74.10,76.83,71.38,76.89,76.01,83.41,72.46,74.57,72.88,78.30,75.37,77.56,72.79,71.10,70.14,81.70,69.45,78.72,72.28,74.61,93.36,85.05,86.04,96.25,90.92,90.72,81.17,92.98,
00:49:58,74.01,73.52,73.09,73.11,74.10,79.11,73.18,75.94,70.55,75.69,75.06,81.83,71.92,73.77,71.95,77.03,74.65,76.64,72.34,70.54,69.68,80.76,68.94,77.93,71.94,74.35,93.15,84.61,85.92,96.27,90.96,90.49,81.37,92.47,
00:50:11,74.72,72.99,72.95,72.99,74.76,79.69,73.57,76.09,70.45,75.60,75.99,82.89,72.64,74.41,72.90,78.02,75.64,77.44,73.61,71.36,71.43,82.51,70.72,79.60,73.16,74.94,93.00,85.42,86.27,96.21,90.78,89.94,81.04,91.76,
00:50:26,74.62,74.25,72.84,72.87,74.82,79.27,73.69,75.90,70.43,75.37,76.04,82.70,72.54,74.06,73.00,77.93,75.55,77.27,74.00,71.28,71.65,82.18,70.97,79.62,73.24,74.86,94.32,87.16,86.83,97.33,91.41,90.97,82.49,93.14,
00:50:39,75.47,76.47,73.05,72.97,74.82,78.84,73.71,75.67,70.43,75.07,75.66,81.77,72.31,73.69,72.81,77.51,75.11,76.69,73.35,70.43,71.16,81.51,70.91,79.60,73.01,74.67,95.82,88.85,87.33,98.50,91.91,91.97,83.85,94.58,
00:50:53,76.28,77.85,72.82,72.83,74.62,78.59,73.68,75.50,70.34,74.93,75.83,81.93,72.41,73.75,73.12,77.90,75.41,76.93,74.12,71.32,72.49,83.56,72.42,81.98,74.64,75.94,98.00,90.24,87.96,99.25,92.34,92.35,83.94,95.17,
00:51:07,76.72,79.51,73.58,73.66,75.44,79.32,74.59,76.12,70.97,75.57,76.83,83.00,73.08,74.52,73.90,78.63,76.09,77.56,74.13,71.47,72.42,83.12,72.33,81.50,74.64,76.21,97.87,90.13,88.01,99.27,92.47,92.35,83.94,95.18,
00:51:20,76.38,79.43,73.75,73.81,75.62,79.32,74.79,76.22,71.24,75.75,76.80,82.80,73.08,74.62,73.92,78.88,76.26,77.84,74.34,71.54,72.44,82.73,72.07,80.64,74.15,75.66,98.14,90.27,88.11,99.65,92.89,93.23,84.86,95.91,
00:51:35,77.04,79.81,73.73,73.89,75.49,79.18,74.75,76.20,71.29,75.83,77.13,83.42,73.39,74.95,74.32,79.41,76.62,78.31,74.32,71.49,72.17,82.49,72.13,80.88,74.50,75.99,98.60,90.49,87.99,99.27,92.55,92.79,84.35,95.58,
00:51:48,76.82,80.51,74.03,74.07,75.87,79.46,75.22,76.49,71.66,76.08,76.96,83.08,73.25,74.80,74.12,79.20,76.49,78.06,74.35,71.73,72.23,82.16,72.18,80.63,74.25,75.37,97.88,90.29,88.34,99.94,92.71,92.86,84.35,95.64,
00:52:02,76.52,80.00,73.69,73.83,75.30,78.73,74.59,75.94,71.34,75.65,76.47,82.42,72.94,74.64,73.71,78.80,76.06,77.62,73.96,71.43,72.08,82.49,72.41,81.39,74.67,75.85,98.15,90.14,88.45,100.00,93.08,93.28,84.63,95.98,
00:52:16,76.45,80.07,73.76,73.98,75.41,78.79,74.85,76.05,71.57,75.86,76.69,82.46,73.20,74.93,74.08,79.28,76.55,78.09,74.33,71.90,72.32,82.68,72.55,81.32,74.96,75.98,97.77,89.94,88.39,100.00,93.03,93.20,84.51,95.93,
00:52:29,76.38,79.85,73.71,74.04,75.49,78.80,74.97,76.13,71.76,76.05,76.85,82.46,73.47,75.18,74.40,79.57,76.78,78.28,75.39,72.98,73.60,84.30,73.58,82.30,75.68,76.60,98.25,90.15,88.65,100.00,93.43,93.68,84.91,96.42,
00:52:43,76.69,79.76,73.88,74.23,75.79,79.03,75.21,76.33,72.07,76.35,77.02,82.51,73.61,75.29,74.33,79.32,76.68,78.20,74.74,72.50,73.19,83.66,73.17,81.72,75.32,76.24,97.71,89.52,88.40,99.84,93.16,93.24,84.37,95.93,
00:52:57,76.08,79.25,73.49,73.97,75.53,78.65,74.83,76.00,71.99,76.23,76.47,81.52,73.30,74.88,73.77,78.57,76.08,77.57,74.10,71.86,72.54,82.52,72.30,80.61,74.77,75.54,96.75,88.80,87.81,98.93,92.72,92.47,83.74,95.14,
00:53:11,75.35,78.41,73.18,73.89,75.37,78.56,74.80,75.91,72.20,76.42,76.35,81.47,73.25,74.80,73.69,78.46,76.01,77.36,74.15,71.85,73.14,83.43,72.78,81.19,74.95,75.73,96.86,88.66,87.75,98.63,92.71,92.26,83.89,95.05,
00:53:25,75.40,78.17,73.32,74.19,75.66,78.74,75.11,76.04,72.58,76.67,76.45,81.44,73.49,74.90,73.72,78.37,76.01,77.29,73.93,71.79,72.36,82.49,72.18,80.39,74.81,75.45,96.28,88.21,87.23,97.84,92.31,91.62,83.53,94.40,
00:53:38,74.94,77.48,73.09,73.86,75.33,78.36,74.74,75.71,72.40,76.42,76.04,80.87,73.24,74.66,73.46,78.02,75.82,77.03,73.89,71.50,72.28,81.92,72.17,80.02,75.07,75.58,95.50,87.70,86.94,97.63,91.91,91.19,82.79,93.77,
00:53:52,75.08,77.35,73.29,74.36,75.68,78.62,75.32,75.97,72.98,76.90,76.37,81.15,73.61,75.09,73.92,78.46,76.23,77.36,74.10,72.02,72.87,82.72,72.44,80.27,75.19,75.67,95.77,87.71,87.12,97.60,92.15,91.39,82.89,93.82,
00:54:06,75.25,77.24,73.50,74.52,75.92,78.67,75.52,76.05,73.25,77.04,76.42,81.04,73.88,75.48,74.15,78.97,76.62,77.84,74.48,72.61,72.78,82.18,72.61,80.09,75.43,75.31,95.63,87.78,87.62,98.42,92.40,91.88,83.26,94.08,
00:54:20,76.25,77.51,74.67,75.69,76.64,79.08,76.31,76.40,73.77,77.35,77.04,81.46,74.89,76.84,75.04,80.13,77.35,78.85,74.76,72.95,73.37,82.69,73.14,80.51,75.69,75.85,95.68,88.18,87.92,98.58,92.48,91.83,83.29,93.90,
00:54:34,76.43,77.78,75.08,75.95,76.80,79.17,76.42,76.50,73.78,77.40,77.07,81.42,74.78,76.97,74.98,80.48,77.49,79.03,74.51,72.64,73.46,82.47,73.10,80.30,75.62,75.52,96.20,88.98,88.02,98.54,92.69,91.96,84.49,94.25,
00:54:47,76.47,78.48,75.35,76.09,76.86,78.99,76.47,76.40,73.82,77.37,77.21,81.10,74.95,77.08,75.25,80.61,77.69,79.09,74.58,72.61,73.28,82.41,73.13,80.05,75.35,75.13,96.55,89.53,88.45,99.20,93.16,92.57,85.14,94.87,